Location: Aulagny
(45.1643°N, 4.3096°E)
Time: 18:23:23
(UTC+00:00)

Falcon 9 debris - Pass Details

Date: 21 October 2019
Orbit: 430 x 438 km, 53.0° (Epoch: 17 November)

Event Time Altitude Azimuth Distance (km) Brightness Sun altitude
Rises 18:36:34 0° 300° (WNW) 2,408 ? -19.8°
Reaches altitude 10° 18:38:42 10° 297° (WNW) 1,539 ? -20.2°
Maximum altitude 18:42:07 61° 217° (SW) 498 ? -20.8°
Enters shadow 18:42:20 59° 195° (SSW) 507 ? -20.8°
